This demonstration page uses our WeatherBlox Daily Observations layout. Learn more.

Hourly Observations for August 19, 2019

Temp ( °F °C ) Dew Point ( °F °C ) Humidity (%) Winds ( mph kmh ) Pressure ( in mb ) Visibility ( mi km ) Precip ( " mm )
12:54 am 00:54 Clear 64 17.8 62 16.7 93 93 N 6 9 29.94 1014 10 16.09344 0 0
1:47 am 01:47 Partly Cloudy with Mist and Fog 64 17.8 62 16.7 93 93 Calm 29.94 1014 6 9.656064 0 0
1:54 am 01:54 Mostly Clear 64 17.8 62 16.7 93 93 Calm 29.94 1014 7 11.265408 0 0
2:54 am 02:54 Clear 64 17.8 62 16.7 93 93 N 5 7 29.94 1014 10 16.09344 0 0
3:54 am 03:54 Mostly Cloudy 64 17.8 62 16.7 93 93 Calm 29.94 1014 9 14.484096 0 0
4:54 am 04:54 Clear 64 17.8 62 16.7 93 93 Calm 29.94 1014 9 14.484096 0 0
5:54 am 05:54 Clear 63 17.2 61 16.1 93 93 N 6 9 29.97 1015 8 12.874752 0 0
6:22 am 06:22 Partly Cloudy with Mist and Fog 63 17.2 61 16.1 93 93 N 5 7 29.97 1015 3 4.828032 0 0
6:50 am 06:50 Partly Cloudy with Mist and Fog 63 17 61 16 94 94 N 5 7 29.97 1015 2.5 4.02336 0 0
6:54 am 06:54 Partly Cloudy with Mist and Fog 63 17.2 61 16.1 93 93 N 6 9 29.97 1015 3 4.828032 0 0
7:04 am 07:04 Mostly Cloudy with Mist and Fog 63 17.2 62 16.7 97 97 N 6 9 30 1016 1.5 2.414016 0 0
7:38 am 07:38 Cloudy with Mist and Fog 65 18.3 64 17.8 97 97 N 3 6 30 1016 1.5 2.414016 0 0
7:49 am 07:49 Mostly Cloudy with Fog 66 19 64 18 94 94 NNE 3 6 30 1016 0.5 0.804672 0 0
7:54 am 07:54 Mostly Cloudy with Mist and Fog 66 18.9 65 18.3 96 96 Calm 29.97 1015 2 3.218688 0 0
8:10 am 08:10 Partly Cloudy with Mist and Fog 68 20 65 18.3 90 90 Calm 30 1016 2 3.218688 0 0
8:18 am 08:18 Partly Cloudy with Mist and Fog 69 20.6 66 18.9 90 90 Calm 30 1016 3 4.828032 0 0
8:54 am 08:54 Sunny 72 22.2 67 19.4 84 84 E 3 6 29.97 1015 8 12.874752 0 0
9:54 am 09:54 Sunny 77 25 69 20.6 77 77 ENE 5 7 29.97 1015 10 16.09344 0 0
10:54 am 10:54 Sunny 80 26.7 69 20.6 69 69 ESE 6 9 29.97 1015 10 16.09344 0 0
11:54 am 11:54 Sunny 83 28.3 70 21.1 65 65 ESE 9 15 29.94 1014 10 16.09344 0 0
12:54 pm 12:54 Sunny 85 29.4 71 21.7 63 63 ESE 10 17 29.94 1014 10 16.09344 0 0
1:54 pm 13:54 Sunny 88 31.1 73 22.8 61 61 SE 10 17 29.91 1013 10 16.09344 0 0
2:54 pm 14:54 Mostly Sunny 89 31.7 73 22.8 59 59 SSE 12 19 29.91 1013 10 16.09344 0 0
3:54 pm 15:54 Mostly Sunny 89 31.7 75 23.9 63 63 SE 12 19 29.88 1012 10 16.09344 0 0
4:54 pm 16:54 Mostly Cloudy 89 31.7 75 23.9 63 63 SE 14 22 29.88 1012 10 16.09344 0 0
5:54 pm 17:54 Mostly Cloudy 89 31.7 76 24.4 65 65 ESE 12 19 29.88 1012 10 16.09344 0 0
6:54 pm 18:54 Mostly Cloudy 87 30.6 76 24.4 70 70 ESE 9 15 29.85 1011 10 16.09344 0 0
7:54 pm 19:54 Partly Cloudy 85 29.4 76 24.4 75 75 SE 10 17 29.85 1011 10 16.09344 0 0
8:54 pm 20:54 Clear 84 28.9 76 24.4 77 77 SE 12 19 29.85 1011 10 16.09344 0 0
9:54 pm 21:54 Clear 84 28.9 77 25 80 80 SE 13 20 29.85 1011 10 16.09344 0 0
10:54 pm 22:54 Clear 83 28.3 76 24.4 79 79 SE 9 15 29.88 1012 10 16.09344 0 0
11:54 pm 23:54 Clear 82 27.8 76 24.4 82 82 SSE 9 15 29.85 1011 10 16.09344 0 0

Powered by AerisWeather